ASTRA 5B

Last updated on Fri Dec 19 2025 00:02:51 GMT+0000 (Coordinated Universal Time)

1 39617U 14011B 25352.55863464 .00000162 00000+0 00000+0 0 9998 2 39617 0.0431 353.6327 0003851 265.5483 52.8566 1.00270207 42855
UTC large
Height (km)
Speed (km/s)
/
Latitude / Longitude
Inclination (degrees)
Orbital Period (minutes)
Azimuth
Elevation
Range (km)
Doppler Factor

Next 0 passes for location: London (51.5072 / 0.1276)

Sorry there are no passes over London.